Time,TemperatureF,DewpointF,PressureIn,WindDirection,WindDirectionDegrees,WindSpeedMPH,WindSpeedGustMPH,Humidity,HourlyPrecipIn,Conditions,Clouds,dailyrainin,SoftwareType,DateUTC
2013-12-29 00:01:00,73.6,66.0,29.99,ESE,113,3.4,3.4,77,0.00,,,0.00,WUHU216HW,2013-12-29 05:01:00,
2013-12-29 00:02:00,73.6,66.0,29.99,ESE,113,2.5,3.4,77,0.00,,,0.00,WUHU216HW,2013-12-29 05:02:00,
2013-12-29 00:03:00,73.6,66.0,29.99,SE,135,1.8,3.4,77,0.00,,,0.00,WUHU216HW,2013-12-29 05:03:00,
2013-12-29 00:04:00,73.6,66.0,29.99,SSE,158,2.5,3.4,77,0.00,,,0.00,WUHU216HW,2013-12-29 05:04:00,
2013-12-29 00:10:00,73.6,66.0,29.99,ESE,113,1.8,3.6,77,0.00,,,0.00,WUHU216HW,2013-12-29 05:10:00,
2013-12-29 00:15:00,73.6,65.6,29.99,ESE,113,1.1,3.6,76,0.00,,,0.00,WUHU216HW,2013-12-29 05:15:00,
2013-12-29 00:20:00,73.4,65.4,29.99,SE,135,2.0,3.4,76,0.00,,,0.00,WUHU216HW,2013-12-29 05:20:00,
2013-12-29 00:25:00,73.4,65.4,29.99,ESE,113,1.8,3.4,76,0.00,,,0.00,WUHU216HW,2013-12-29 05:25:00,
2013-12-29 00:30:00,73.4,65.4,29.99,SE,135,2.0,2.9,76,0.00,,,0.00,WUHU216HW,2013-12-29 05:30:00,
2013-12-29 00:35:00,73.4,65.1,29.99,SE,135,0.4,2.7,75,0.00,,,0.00,WUHU216HW,2013-12-29 05:35:00,
2013-12-29 00:40:00,73.4,65.4,29.99,SSE,158,1.1,2.9,76,0.00,,,0.00,WUHU216HW,2013-12-29 05:40:00,
2013-12-29 00:45:00,73.4,65.4,29.98,SE,135,2.2,2.9,76,0.00,,,0.00,WUHU216HW,2013-12-29 05:45:00,
2013-12-29 00:50:00,73.4,65.1,29.98,SE,135,2.0,4.5,75,0.00,,,0.00,WUHU216HW,2013-12-29 05:50:00,
2013-12-29 00:55:00,73.4,65.1,29.98,SE,135,2.5,4.5,75,0.00,,,0.00,WUHU216HW,2013-12-29 05:55:00,
2013-12-29 01:00:00,73.4,65.1,29.98,SSE,158,1.3,3.4,75,0.00,,,0.00,WUHU216HW,2013-12-29 06:00:00,
2013-12-29 01:05:00,73.4,65.1,29.98,SE,135,0.9,3.8,75,0.00,,,0.00,WUHU216HW,2013-12-29 06:05:00,
2013-12-29 01:10:00,73.4,64.7,29.98,SE,135,4.3,4.3,74,0.00,,,0.00,WUHU216HW,2013-12-29 06:10:00,
2013-12-29 01:15:00,73.4,65.1,29.98,SE,135,0.4,4.3,75,0.00,,,0.00,WUHU216HW,2013-12-29 06:15:00,
2013-12-29 01:20:00,73.4,64.7,29.98,ESE,113,1.1,2.2,74,0.00,,,0.00,WUHU216HW,2013-12-29 06:20:00,
2013-12-29 01:26:00,73.4,64.7,29.97,SSE,158,1.3,2.5,74,0.00,,,0.00,WUHU216HW,2013-12-29 06:26:00,
2013-12-29 01:31:00,73.4,65.1,29.97,ESE,113,0.4,2.5,75,0.00,,,0.00,WUHU216HW,2013-12-29 06:31:00,
2013-12-29 01:36:00,73.4,64.7,29.97,SE,135,2.5,3.1,74,0.00,,,0.00,WUHU216HW,2013-12-29 06:36:00,
2013-12-29 01:41:00,73.4,64.7,29.97,SSE,158,1.1,3.1,74,0.00,,,0.00,WUHU216HW,2013-12-29 06:41:00,
2013-12-29 01:46:00,73.4,64.7,29.97,ESE,113,1.8,2.5,74,0.00,,,0.00,WUHU216HW,2013-12-29 06:46:00,
2013-12-29 01:51:00,73.4,64.7,29.97,ESE,113,0.2,4.0,74,0.00,,,0.00,WUHU216HW,2013-12-29 06:51:00,
2013-12-29 01:56:00,73.4,64.4,29.97,SE,135,3.8,4.0,73,0.00,,,0.00,WUHU216HW,2013-12-29 06:56:00,
2013-12-29 02:01:00,73.4,64.4,29.98,SE,135,1.8,3.8,73,0.00,,,0.00,WUHU216HW,2013-12-29 07:01:00,
2013-12-29 02:06:00,73.4,64.7,29.97,ESE,113,1.1,2.2,74,0.00,,,0.00,WUHU216HW,2013-12-29 07:06:00,
2013-12-29 02:11:00,73.4,64.7,29.97,SE,135,1.8,2.2,74,0.00,,,0.00,WUHU216HW,2013-12-29 07:11:00,
2013-12-29 02:16:00,73.4,64.7,29.96,SE,135,1.8,3.4,74,0.00,,,0.00,WUHU216HW,2013-12-29 07:16:00,
2013-12-29 02:21:00,73.4,64.7,29.96,ESE,113,2.0,3.4,74,0.00,,,0.00,WUHU216HW,2013-12-29 07:21:00,
2013-12-29 02:26:00,73.4,64.7,29.96,ESE,113,1.6,3.1,74,0.00,,,0.00,WUHU216HW,2013-12-29 07:26:00,
2013-12-29 02:31:00,73.4,64.7,29.95,SSE,158,2.9,3.4,74,0.00,,,0.00,WUHU216HW,2013-12-29 07:31:00,
2013-12-29 02:37:00,73.4,64.4,29.95,SSE,158,1.6,4.5,73,0.00,,,0.00,WUHU216HW,2013-12-29 07:37:00,
2013-12-29 02:42:00,73.4,64.4,29.94,ESE,113,1.3,4.5,73,0.00,,,0.00,WUHU216HW,2013-12-29 07:42:00,
2013-12-29 02:47:00,73.3,64.2,29.94,SE,135,2.5,4.0,73,0.00,,,0.00,WUHU216HW,2013-12-29 07:47:00,
2013-12-29 02:52:00,73.4,64.7,29.93,ESE,113,4.5,4.5,74,0.00,,,0.00,WUHU216HW,2013-12-29 07:52:00,
2013-12-29 02:57:00,73.4,64.7,29.93,SE,135,0.9,4.5,74,0.00,,,0.00,WUHU216HW,2013-12-29 07:57:00,
2013-12-29 03:02:00,73.4,64.7,29.93,SE,135,2.0,3.1,74,0.00,,,0.00,WUHU216HW,2013-12-29 08:02:00,
2013-12-29 03:07:00,73.4,64.4,29.93,ESE,113,0.7,2.9,73,0.00,,,0.00,WUHU216HW,2013-12-29 08:07:00,
2013-12-29 03:12:00,73.4,64.7,29.93,SSE,158,1.8,3.1,74,0.00,,,0.00,WUHU216HW,2013-12-29 08:12:00,
2013-12-29 03:17:00,73.4,64.7,29.92,SE,135,3.6,3.6,74,0.00,,,0.00,WUHU216HW,2013-12-29 08:17:00,
2013-12-29 03:22:00,73.4,64.7,29.91,ESE,113,1.1,4.0,74,0.00,,,0.00,WUHU216HW,2013-12-29 08:22:00,
2013-12-29 03:27:00,73.3,64.5,29.91,ESE,113,0.4,4.0,74,0.00,,,0.00,WUHU216HW,2013-12-29 08:27:00,
2013-12-29 03:32:00,73.3,64.5,29.91,ESE,113,2.9,2.9,74,0.00,,,0.00,WUHU216HW,2013-12-29 08:32:00,
2013-12-29 03:37:00,73.4,64.7,29.91,SE,135,1.1,2.9,74,0.00,,,0.00,WUHU216HW,2013-12-29 08:37:00,
2013-12-29 03:42:00,73.4,64.7,29.92,SE,135,1.1,2.9,74,0.00,,,0.00,WUHU216HW,2013-12-29 08:42:00,
2013-12-29 03:47:00,73.3,64.5,29.93,SSE,158,1.6,2.7,74,0.00,,,0.00,WUHU216HW,2013-12-29 08:47:00,
2013-12-29 03:53:00,73.4,64.7,29.93,SE,135,1.6,2.7,74,0.00,,,0.00,WUHU216HW,2013-12-29 08:53:00,
2013-12-29 03:58:00,73.4,64.7,29.93,ESE,113,1.8,2.5,74,0.00,,,0.00,WUHU216HW,2013-12-29 08:58:00,
2013-12-29 04:03:00,73.4,64.7,29.92,ESE,113,2.5,2.9,74,0.00,,,0.00,WUHU216HW,2013-12-29 09:03:00,
2013-12-29 04:08:00,73.4,64.7,29.92,SE,135,0.9,2.9,74,0.00,,,0.00,WUHU216HW,2013-12-29 09:08:00,
2013-12-29 04:13:00,73.4,64.7,29.92,SE,135,0.4,2.9,74,0.00,,,0.00,WUHU216HW,2013-12-29 09:13:00,
2013-12-29 04:18:00,73.4,64.7,29.93,SE,135,1.8,2.5,74,0.00,,,0.00,WUHU216HW,2013-12-29 09:18:00,
2013-12-29 04:23:00,73.4,64.4,29.93,SSE,158,2.0,4.0,73,0.00,,,0.00,WUHU216HW,2013-12-29 09:23:00,
2013-12-29 04:28:00,73.4,64.4,29.93,SSE,158,0.9,4.0,73,0.00,,,0.00,WUHU216HW,2013-12-29 09:28:00,
2013-12-29 04:33:00,73.4,64.7,29.93,SE,135,2.0,2.0,74,0.00,,,0.00,WUHU216HW,2013-12-29 09:33:00,
2013-12-29 04:38:00,73.4,64.7,29.93,ESE,113,2.0,2.7,74,0.00,,,0.00,WUHU216HW,2013-12-29 09:38:00,
2013-12-29 04:43:00,73.4,64.4,29.93,SE,135,2.5,2.9,73,0.00,,,0.00,WUHU216HW,2013-12-29 09:43:00,
2013-12-29 04:48:00,73.4,64.4,29.94,ESE,113,1.3,2.9,73,0.00,,,0.00,WUHU216HW,2013-12-29 09:48:00,
2013-12-29 04:53:00,73.4,64.7,29.94,SE,135,0.4,2.5,74,0.00,,,0.00,WUHU216HW,2013-12-29 09:53:00,
2013-12-29 04:58:00,73.4,64.7,29.94,SSE,158,1.3,1.8,74,0.00,,,0.00,WUHU216HW,2013-12-29 09:58:00,
2013-12-29 05:03:00,73.4,64.7,29.94,SE,135,0.9,1.3,74,0.00,,,0.00,WUHU216HW,2013-12-29 10:03:00,
2013-12-29 05:09:00,73.4,64.7,29.94,SSE,158,0.9,0.9,74,0.00,,,0.00,WUHU216HW,2013-12-29 10:09:00,
2013-12-29 05:14:00,73.4,64.7,29.94,SE,135,0.0,1.1,74,0.00,,,0.00,WUHU216HW,2013-12-29 10:14:00,
2013-12-29 05:19:00,73.4,64.7,29.94,SE,135,1.3,1.3,74,0.00,,,0.00,WUHU216HW,2013-12-29 10:19:00,
2013-12-29 05:24:00,73.4,64.7,29.94,SE,135,0.4,1.8,74,0.00,,,0.00,WUHU216HW,2013-12-29 10:24:00,
2013-12-29 05:29:00,73.4,64.7,29.94,SE,135,0.4,1.8,74,0.00,,,0.00,WUHU216HW,2013-12-29 10:29:00,
2013-12-29 05:34:00,73.4,64.7,29.94,SE,135,1.3,1.3,74,0.00,,,0.00,WUHU216HW,2013-12-29 10:34:00,
2013-12-29 05:39:00,73.6,64.9,29.95,South,180,0.9,1.6,74,0.00,,,0.00,WUHU216HW,2013-12-29 10:39:00,
2013-12-29 05:44:00,73.4,64.7,29.95,SE,135,0.4,1.6,74,0.00,,,0.00,WUHU216HW,2013-12-29 10:44:00,
2013-12-29 05:49:00,73.4,64.7,29.95,SSE,158,0.4,2.0,74,0.00,,,0.00,WUHU216HW,2013-12-29 10:49:00,
2013-12-29 05:54:00,73.6,64.9,29.96,SE,135,0.9,2.0,74,0.00,,,0.00,WUHU216HW,2013-12-29 10:54:00,
2013-12-29 05:59:00,73.6,64.9,29.96,SSE,158,0.7,1.3,74,0.00,,,0.00,WUHU216HW,2013-12-29 10:59:00,
2013-12-29 06:04:00,73.6,64.9,29.96,SSE,158,0.7,1.3,74,0.00,,,0.00,WUHU216HW,2013-12-29 11:04:00,
2013-12-29 06:09:00,73.6,64.9,29.96,SSE,158,1.3,1.3,74,0.00,,,0.00,WUHU216HW,2013-12-29 11:09:00,
2013-12-29 06:14:00,73.8,64.6,29.96,ESE,113,0.4,1.3,73,0.00,,,0.00,WUHU216HW,2013-12-29 11:14:00,
2013-12-29 06:20:00,73.8,64.6,29.96,SSE,158,1.8,1.8,73,0.00,,,0.00,WUHU216HW,2013-12-29 11:20:00,
2013-12-29 06:25:00,73.8,64.3,29.96,SE,135,0.9,1.8,72,0.00,,,0.00,WUHU216HW,2013-12-29 11:25:00,
2013-12-29 06:30:00,73.8,64.3,29.96,SSE,158,1.1,1.8,72,0.00,,,0.00,WUHU216HW,2013-12-29 11:30:00,
2013-12-29 06:35:00,73.8,63.9,29.96,SW,225,3.1,3.1,71,0.00,,,0.00,WUHU216HW,2013-12-29 11:35:00,
2013-12-29 06:40:00,74.0,64.1,29.96,SE,135,1.3,3.1,71,0.00,,,0.00,WUHU216HW,2013-12-29 11:40:00,
2013-12-29 06:45:00,74.0,63.6,29.96,SSE,158,0.9,3.1,70,0.00,,,0.00,WUHU216HW,2013-12-29 11:45:00,
2013-12-29 06:50:00,74.0,64.1,29.95,SE,135,0.2,4.5,71,0.00,,,0.00,WUHU216HW,2013-12-29 11:50:00,
2013-12-29 06:55:00,74.0,63.6,29.96,SSE,158,2.7,4.5,70,0.00,,,0.00,WUHU216HW,2013-12-29 11:55:00,
2013-12-29 07:00:00,74.0,64.1,29.96,South,180,0.9,2.9,71,0.01,,,0.00,WUHU216HW,2013-12-29 12:00:00,
2013-12-29 07:05:00,74.0,64.1,29.96,SSE,158,0.4,1.8,71,0.01,,,0.01,WUHU216HW,2013-12-29 12:05:00,
2013-12-29 07:10:00,74.0,64.1,29.96,SSE,158,1.8,1.8,71,0.02,,,0.01,WUHU216HW,2013-12-29 12:10:00,
2013-12-29 07:15:00,74.0,64.1,29.96,SE,135,0.4,1.8,71,0.02,,,0.02,WUHU216HW,2013-12-29 12:15:00,
2013-12-29 07:20:00,74.0,64.1,29.96,SSE,158,0.4,1.3,71,0.02,,,0.02,WUHU216HW,2013-12-29 12:20:00,
2013-12-29 07:25:00,74.0,64.1,29.96,SE,135,0.7,1.3,71,0.02,,,0.02,WUHU216HW,2013-12-29 12:25:00,
2013-12-29 07:31:00,74.0,64.1,29.96,SSE,158,1.1,1.1,71,0.02,,,0.02,WUHU216HW,2013-12-29 12:31:00,
2013-12-29 07:36:00,73.8,64.3,29.97,SSE,158,1.3,1.3,72,0.02,,,0.02,WUHU216HW,2013-12-29 12:36:00,
2013-12-29 07:41:00,73.8,64.3,29.97,SSE,158,1.1,1.3,72,0.02,,,0.02,WUHU216HW,2013-12-29 12:41:00,
2013-12-29 07:46:00,73.8,64.3,29.98,SE,135,0.2,1.1,72,0.02,,,0.02,WUHU216HW,2013-12-29 12:46:00,
2013-12-29 07:51:00,73.8,64.3,29.98,SSE,158,0.0,1.1,72,0.02,,,0.02,WUHU216HW,2013-12-29 12:51:00,
2013-12-29 07:56:00,73.8,64.3,29.98,SSE,158,0.0,1.1,72,0.02,,,0.02,WUHU216HW,2013-12-29 12:56:00,
2013-12-29 08:01:00,73.8,64.3,29.97,SE,135,0.4,0.4,72,0.01,,,0.02,WUHU216HW,2013-12-29 13:01:00,
2013-12-29 08:06:00,73.8,64.3,29.97,SE,135,0.0,0.4,72,0.01,,,0.02,WUHU216HW,2013-12-29 13:06:00,
2013-12-29 08:11:00,73.8,64.3,29.97,SE,135,0.4,0.4,72,0.01,,,0.02,WUHU216HW,2013-12-29 13:11:00,
2013-12-29 08:16:00,73.8,64.3,29.97,ESE,113,0.2,0.7,72,0.02,,,0.04,WUHU216HW,2013-12-29 13:16:00,
2013-12-29 08:21:00,73.8,63.9,29.97,ESE,113,0.2,0.7,71,0.03,,,0.05,WUHU216HW,2013-12-29 13:21:00,
2013-12-29 08:26:00,73.8,63.9,29.97,ESE,113,0.0,0.4,71,0.03,,,0.05,WUHU216HW,2013-12-29 13:26:00,
2013-12-29 08:31:00,73.8,63.9,29.97,ESE,113,0.4,0.4,71,0.05,,,0.06,WUHU216HW,2013-12-29 13:31:00,
2013-12-29 08:36:00,73.8,63.9,29.97,South,180,0.0,0.7,71,0.06,,,0.08,WUHU216HW,2013-12-29 13:36:00,
2013-12-29 08:41:00,73.8,63.9,29.97,SSE,158,0.2,0.7,71,0.07,,,0.09,WUHU216HW,2013-12-29 13:41:00,
2013-12-29 08:47:00,73.8,63.9,29.97,SE,135,1.1,1.1,71,0.07,,,0.09,WUHU216HW,2013-12-29 13:47:00,
2013-12-29 08:52:00,73.8,63.9,29.97,SE,135,4.0,4.0,71,0.07,,,0.09,WUHU216HW,2013-12-29 13:52:00,
2013-12-29 08:57:00,74.0,63.6,29.98,SE,135,0.4,4.0,70,0.07,,,0.09,WUHU216HW,2013-12-29 13:57:00,
2013-12-29 09:02:00,74.0,63.6,29.98,SE,135,0.9,2.2,70,0.07,,,0.09,WUHU216HW,2013-12-29 14:02:00,
2013-12-29 09:07:00,74.2,63.4,29.98,ESE,113,2.0,2.2,69,0.07,,,0.09,WUHU216HW,2013-12-29 14:07:00,
2013-12-29 09:12:00,74.2,63.4,29.99,SE,135,0.4,2.2,69,0.05,,,0.09,WUHU216HW,2013-12-29 14:12:00,
2013-12-29 09:17:00,74.2,62.5,29.99,SSE,158,3.6,3.6,67,0.04,,,0.09,WUHU216HW,2013-12-29 14:17:00,
2013-12-29 09:22:00,74.3,62.2,29.99,SSE,158,1.1,3.6,66,0.05,,,0.10,WUHU216HW,2013-12-29 14:22:00,
2013-12-29 09:27:00,74.3,62.2,29.99,SE,135,2.7,3.4,66,0.05,,,0.10,WUHU216HW,2013-12-29 14:27:00,
2013-12-29 09:32:00,74.5,62.4,29.99,SSE,158,2.5,3.4,66,0.02,,,0.10,WUHU216HW,2013-12-29 14:32:00,
2013-12-29 09:37:00,74.5,62.4,29.99,SSE,158,1.1,2.5,66,0.01,,,0.10,WUHU216HW,2013-12-29 14:37:00,
2013-12-29 09:42:00,74.5,61.9,29.99,SSE,158,0.2,4.3,65,0.01,,,0.10,WUHU216HW,2013-12-29 14:42:00,
2013-12-29 09:47:00,74.5,61.9,29.99,SSE,158,1.6,4.3,65,0.01,,,0.10,WUHU216HW,2013-12-29 14:47:00,
2013-12-29 09:53:00,74.5,61.9,30.00,SE,135,1.8,3.4,65,0.01,,,0.10,WUHU216HW,2013-12-29 14:53:00,
2013-12-29 09:58:00,74.5,61.9,30.00,SSE,158,2.2,3.4,65,0.01,,,0.10,WUHU216HW,2013-12-29 14:58:00,
2013-12-29 10:03:00,74.7,61.3,30.00,SE,135,1.8,4.0,63,0.01,,,0.10,WUHU216HW,2013-12-29 15:03:00,
2013-12-29 10:08:00,74.9,61.0,30.00,SSE,158,2.7,4.9,62,0.01,,,0.10,WUHU216HW,2013-12-29 15:08:00,
2013-12-29 10:13:00,75.1,61.2,30.00,SSE,158,2.7,4.9,62,0.01,,,0.10,WUHU216HW,2013-12-29 15:13:00,
2013-12-29 10:18:00,75.1,60.8,30.00,SSW,203,2.5,3.8,61,0.00,,,0.10,WUHU216HW,2013-12-29 15:18:00,
2013-12-29 10:23:00,75.1,61.2,29.99,SSE,158,1.3,3.8,62,0.00,,,0.10,WUHU216HW,2013-12-29 15:23:00,
2013-12-29 10:28:00,75.2,60.9,29.99,SSE,158,1.3,3.4,61,0.00,,,0.10,WUHU216HW,2013-12-29 15:28:00,
2013-12-29 10:33:00,75.1,61.2,30.00,SSE,158,1.8,5.1,62,0.00,,,0.10,WUHU216HW,2013-12-29 15:33:00,
2013-12-29 10:38:00,75.1,61.2,30.00,SSE,158,4.0,5.1,62,0.00,,,0.10,WUHU216HW,2013-12-29 15:38:00,
2013-12-29 10:43:00,75.2,61.4,30.00,SSE,158,2.2,4.0,62,0.00,,,0.10,WUHU216HW,2013-12-29 15:43:00,
2013-12-29 10:48:00,75.2,61.7,30.00,ESE,113,2.7,4.5,63,0.00,,,0.10,WUHU216HW,2013-12-29 15:48:00,
2013-12-29 10:53:00,75.2,61.7,29.99,SSE,158,3.1,4.5,63,0.00,,,0.10,WUHU216HW,2013-12-29 15:53:00,
2013-12-29 10:59:00,75.2,62.2,29.99,SSE,158,1.8,4.3,64,0.00,,,0.10,WUHU216HW,2013-12-29 15:59:00,
2013-12-29 11:04:00,75.4,62.4,29.99,South,180,5.4,5.4,64,0.00,,,0.10,WUHU216HW,2013-12-29 16:04:00,
2013-12-29 11:09:00,75.2,62.6,29.99,SE,135,4.0,5.4,65,0.01,,,0.11,WUHU216HW,2013-12-29 16:09:00,
2013-12-29 11:14:00,75.2,63.1,29.99,SE,135,2.2,5.1,66,0.01,,,0.11,WUHU216HW,2013-12-29 16:14:00,
2013-12-29 11:19:00,75.4,62.8,29.99,SE,135,2.7,5.1,65,0.01,,,0.11,WUHU216HW,2013-12-29 16:19:00,
2013-12-29 11:24:00,75.6,63.5,29.99,South,180,4.3,4.3,66,0.01,,,0.11,WUHU216HW,2013-12-29 16:24:00,
2013-12-29 11:29:00,75.6,63.5,29.99,SE,135,3.4,4.3,66,0.01,,,0.11,WUHU216HW,2013-12-29 16:29:00,
2013-12-29 11:34:00,75.6,63.5,29.98,SSW,203,1.8,4.9,66,0.02,,,0.12,WUHU216HW,2013-12-29 16:34:00,
2013-12-29 11:39:00,75.6,63.0,29.97,SE,135,4.5,4.9,65,0.02,,,0.12,WUHU216HW,2013-12-29 16:39:00,
2013-12-29 11:44:00,75.6,63.0,29.97,SSW,203,1.1,5.1,65,0.02,,,0.12,WUHU216HW,2013-12-29 16:44:00,
2013-12-29 11:49:00,75.6,63.0,29.97,South,180,2.0,5.1,65,0.02,,,0.12,WUHU216HW,2013-12-29 16:49:00,
2013-12-29 11:54:00,75.6,63.0,29.97,SSE,158,1.6,4.3,65,0.02,,,0.12,WUHU216HW,2013-12-29 16:54:00,
2013-12-29 11:59:00,75.6,63.0,29.97,SSE,158,2.9,4.0,65,0.02,,,0.12,WUHU216HW,2013-12-29 16:59:00,
2013-12-29 12:05:00,75.6,62.6,29.96,SSE,158,2.5,4.0,64,0.02,,,0.13,WUHU216HW,2013-12-29 17:05:00,
2013-12-29 12:10:00,75.8,62.7,29.96,SW,225,1.1,4.3,64,0.03,,,0.14,WUHU216HW,2013-12-29 17:10:00,
2013-12-29 12:15:00,75.8,62.3,29.95,SSW,203,6.7,6.7,63,0.03,,,0.14,WUHU216HW,2013-12-29 17:15:00,
2013-12-29 12:20:00,76.0,62.0,29.94,SE,135,4.3,6.7,62,0.03,,,0.14,WUHU216HW,2013-12-29 17:20:00,
2013-12-29 12:25:00,76.0,61.6,29.93,SSE,158,6.0,6.0,61,0.03,,,0.14,WUHU216HW,2013-12-29 17:25:00,
2013-12-29 12:30:00,76.0,61.6,29.92,SSE,158,4.7,6.0,61,0.03,,,0.14,WUHU216HW,2013-12-29 17:30:00,
2013-12-29 12:35:00,76.0,61.6,29.92,South,180,4.0,6.3,61,0.02,,,0.14,WUHU216HW,2013-12-29 17:35:00,
2013-12-29 12:40:00,76.1,62.2,29.92,WSW,248,4.7,7.2,62,0.02,,,0.14,WUHU216HW,2013-12-29 17:40:00,
2013-12-29 12:45:00,76.3,62.4,29.93,SE,135,6.5,7.2,62,0.02,,,0.14,WUHU216HW,2013-12-29 17:45:00,
2013-12-29 12:50:00,76.5,62.9,29.92,SSW,203,3.4,6.7,63,0.02,,,0.14,WUHU216HW,2013-12-29 17:50:00,
2013-12-29 12:55:00,76.5,62.9,29.92,SW,225,3.1,6.7,63,0.02,,,0.14,WUHU216HW,2013-12-29 17:55:00,
2013-12-29 13:01:00,76.5,63.4,29.92,South,180,0.9,6.3,64,0.01,,,0.14,WUHU216HW,2013-12-29 18:01:00,
2013-12-29 13:06:00,76.5,63.8,29.92,SSW,203,2.7,9.4,65,0.01,,,0.14,WUHU216HW,2013-12-29 18:06:00,
2013-12-29 13:11:00,76.5,64.3,29.92,SSE,158,3.4,9.4,66,0.00,,,0.14,WUHU216HW,2013-12-29 18:11:00,
2013-12-29 13:16:00,76.5,64.3,29.92,SW,225,2.5,5.4,66,0.00,,,0.14,WUHU216HW,2013-12-29 18:16:00,
2013-12-29 13:21:00,76.5,64.7,29.92,South,180,2.5,5.4,67,0.00,,,0.14,WUHU216HW,2013-12-29 18:21:00,
2013-12-29 13:26:00,76.5,65.6,29.91,SSE,158,2.9,4.7,69,0.00,,,0.14,WUHU216HW,2013-12-29 18:26:00,
2013-12-29 13:31:00,76.5,65.6,29.91,SE,135,4.5,4.5,69,0.00,,,0.14,WUHU216HW,2013-12-29 18:31:00,
2013-12-29 13:36:00,76.5,66.9,29.91,SSW,203,3.4,5.6,72,0.00,,,0.14,WUHU216HW,2013-12-29 18:36:00,
2013-12-29 13:41:00,76.5,67.2,29.91,SSW,203,3.1,7.2,73,0.00,,,0.14,WUHU216HW,2013-12-29 18:41:00,
2013-12-29 13:46:00,76.5,67.6,29.90,SSE,158,2.5,5.4,74,0.00,,,0.14,WUHU216HW,2013-12-29 18:46:00,
2013-12-29 13:51:00,76.3,67.8,29.90,SSE,158,4.7,5.4,75,0.00,,,0.14,WUHU216HW,2013-12-29 18:51:00,
2013-12-29 13:56:00,76.3,68.6,29.90,SSE,158,5.4,6.3,77,0.00,,,0.14,WUHU216HW,2013-12-29 18:56:00,
2013-12-29 14:01:00,76.3,68.2,29.91,SSW,203,2.7,6.3,76,0.00,,,0.14,WUHU216HW,2013-12-29 19:01:00,
2013-12-29 14:07:00,76.3,68.2,29.91,SSE,158,1.8,5.4,76,0.00,,,0.14,WUHU216HW,2013-12-29 19:07:00,
2013-12-29 14:12:00,76.3,68.2,29.91,SSE,158,2.0,5.4,76,0.00,,,0.14,WUHU216HW,2013-12-29 19:12:00,
2013-12-29 14:17:00,76.5,68.4,29.91,NW,315,0.4,2.9,76,0.00,,,0.14,WUHU216HW,2013-12-29 19:17:00,
2013-12-29 14:22:00,76.5,68.0,29.91,SSE,158,1.8,4.5,75,0.00,,,0.14,WUHU216HW,2013-12-29 19:22:00,
2013-12-29 14:27:00,76.3,67.8,29.91,SSW,203,4.5,5.4,75,0.00,,,0.14,WUHU216HW,2013-12-29 19:27:00,
2013-12-29 14:32:00,76.3,67.8,29.90,South,180,2.7,6.5,75,0.00,,,0.14,WUHU216HW,2013-12-29 19:32:00,
2013-12-29 14:37:00,76.1,67.7,29.90,SE,135,3.6,6.5,75,0.00,,,0.14,WUHU216HW,2013-12-29 19:37:00,
2013-12-29 14:42:00,76.1,67.7,29.91,SSW,203,2.7,5.6,75,0.00,,,0.14,WUHU216HW,2013-12-29 19:42:00,
2013-12-29 14:47:00,76.1,67.7,29.90,South,180,3.4,7.6,75,0.00,,,0.14,WUHU216HW,2013-12-29 19:47:00,
2013-12-29 14:52:00,76.1,67.7,29.89,South,180,2.0,7.6,75,0.00,,,0.14,WUHU216HW,2013-12-29 19:52:00,
2013-12-29 14:57:00,76.1,67.7,29.89,SW,225,6.7,6.7,75,0.00,,,0.14,WUHU216HW,2013-12-29 19:57:00,
2013-12-29 15:02:00,76.1,67.7,29.89,SSE,158,4.5,6.7,75,0.00,,,0.14,WUHU216HW,2013-12-29 20:02:00,
2013-12-29 15:08:00,76.1,67.7,29.89,SSE,158,4.0,8.1,75,0.00,,,0.14,WUHU216HW,2013-12-29 20:08:00,
2013-12-29 15:13:00,76.3,67.4,29.89,WNW,293,0.9,8.1,74,0.00,,,0.14,WUHU216HW,2013-12-29 20:13:00,
2013-12-29 15:18:00,76.3,67.4,29.90,East,90,1.3,7.2,74,0.00,,,0.14,WUHU216HW,2013-12-29 20:18:00,
2013-12-29 15:23:00,76.5,67.2,29.90,South,180,1.8,7.2,73,0.00,,,0.14,WUHU216HW,2013-12-29 20:23:00,
2013-12-29 15:28:00,76.5,67.2,29.90,SSE,158,2.0,6.5,73,0.00,,,0.14,WUHU216HW,2013-12-29 20:28:00,
2013-12-29 15:33:00,76.5,67.6,29.90,South,180,5.4,6.5,74,0.00,,,0.14,WUHU216HW,2013-12-29 20:33:00,
2013-12-29 15:38:00,76.5,67.6,29.91,SSE,158,4.0,8.3,74,0.00,,,0.14,WUHU216HW,2013-12-29 20:38:00,
2013-12-29 15:43:00,76.5,67.6,29.91,South,180,2.5,8.3,74,0.00,,,0.14,WUHU216HW,2013-12-29 20:43:00,
2013-12-29 15:48:00,76.5,67.6,29.91,WSW,248,1.8,6.3,74,0.00,,,0.14,WUHU216HW,2013-12-29 20:48:00,
2013-12-29 15:53:00,76.5,67.6,29.91,SE,135,3.4,4.9,74,0.00,,,0.14,WUHU216HW,2013-12-29 20:53:00,
2013-12-29 15:58:00,76.3,67.4,29.91,South,180,2.5,3.6,74,0.00,,,0.14,WUHU216HW,2013-12-29 20:58:00,
2013-12-29 16:03:00,76.3,67.4,29.91,SSW,203,2.5,3.8,74,0.00,,,0.14,WUHU216HW,2013-12-29 21:03:00,
2013-12-29 16:08:00,76.3,67.4,29.91,SSW,203,1.6,3.8,74,0.00,,,0.14,WUHU216HW,2013-12-29 21:08:00,
2013-12-29 16:14:00,76.3,67.4,29.91,SSW,203,0.4,5.1,74,0.00,,,0.14,WUHU216HW,2013-12-29 21:14:00,
2013-12-29 16:19:00,76.3,67.4,29.91,SW,225,1.6,5.1,74,0.00,,,0.14,WUHU216HW,2013-12-29 21:19:00,
2013-12-29 16:24:00,76.3,67.4,29.91,SW,225,0.4,2.0,74,0.00,,,0.14,WUHU216HW,2013-12-29 21:24:00,
2013-12-29 16:29:00,76.1,67.2,29.91,SW,225,0.7,2.0,74,0.00,,,0.14,WUHU216HW,2013-12-29 21:29:00,
2013-12-29 16:34:00,76.1,67.7,29.92,SW,225,0.4,1.8,75,0.00,,,0.14,WUHU216HW,2013-12-29 21:34:00,
2013-12-29 16:39:00,76.1,67.7,29.91,SE,135,1.1,1.8,75,0.00,,,0.14,WUHU216HW,2013-12-29 21:39:00,
2013-12-29 16:44:00,76.1,67.7,29.92,SSE,158,2.2,2.2,75,0.00,,,0.14,WUHU216HW,2013-12-29 21:44:00,
2013-12-29 16:49:00,76.1,67.7,29.92,SSW,203,1.3,3.4,75,0.00,,,0.14,WUHU216HW,2013-12-29 21:49:00,
2013-12-29 16:54:00,76.0,67.9,29.92,South,180,0.4,3.4,76,0.00,,,0.14,WUHU216HW,2013-12-29 21:54:00,
2013-12-29 16:59:00,76.0,67.9,29.92,SSW,203,0.9,2.2,76,0.00,,,0.14,WUHU216HW,2013-12-29 21:59:00,
2013-12-29 17:04:00,76.0,67.5,29.93,SSW,203,1.1,2.5,75,0.00,,,0.14,WUHU216HW,2013-12-29 22:04:00,
2013-12-29 17:09:00,75.8,67.3,29.93,SSW,203,0.9,2.5,75,0.00,,,0.14,WUHU216HW,2013-12-29 22:09:00,
2013-12-29 17:14:00,75.8,67.7,29.93,SSE,158,2.0,2.0,76,0.00,,,0.14,WUHU216HW,2013-12-29 22:14:00,
2013-12-29 17:20:00,75.6,67.5,29.93,SW,225,0.4,2.0,76,0.00,,,0.14,WUHU216HW,2013-12-29 22:20:00,
2013-12-29 17:25:00,75.6,67.5,29.93,South,180,0.4,1.6,76,0.00,,,0.14,WUHU216HW,2013-12-29 22:25:00,
2013-12-29 17:30:00,75.6,67.5,29.93,SSW,203,0.7,1.6,76,0.00,,,0.14,WUHU216HW,2013-12-29 22:30:00,
2013-12-29 17:35:00,75.4,67.3,29.93,SSE,158,1.1,1.3,76,0.00,,,0.14,WUHU216HW,2013-12-29 22:35:00,
2013-12-29 17:40:00,75.2,67.1,29.93,SSW,203,0.4,1.1,76,0.00,,,0.14,WUHU216HW,2013-12-29 22:40:00,
2013-12-29 17:45:00,75.2,67.1,29.93,SSE,158,0.2,1.1,76,0.00,,,0.14,WUHU216HW,2013-12-29 22:45:00,
2013-12-29 17:50:00,75.2,67.1,29.93,SSW,203,0.2,1.8,76,0.00,,,0.14,WUHU216HW,2013-12-29 22:50:00,
2013-12-29 17:55:00,75.1,67.4,29.93,SSW,203,0.0,1.8,77,0.00,,,0.14,WUHU216HW,2013-12-29 22:55:00,
2013-12-29 18:00:00,75.1,67.4,29.94,WSW,248,0.7,1.1,77,0.00,,,0.14,WUHU216HW,2013-12-29 23:00:00,
2013-12-29 18:05:00,75.1,67.4,29.94,SSE,158,0.0,1.1,77,0.00,,,0.14,WUHU216HW,2013-12-29 23:05:00,
2013-12-29 18:10:00,74.9,67.6,29.94,SSW,203,1.1,1.8,78,0.00,,,0.14,WUHU216HW,2013-12-29 23:10:00,
2013-12-29 18:15:00,74.7,67.4,29.94,SSW,203,0.4,1.8,78,0.00,,,0.14,WUHU216HW,2013-12-29 23:15:00,
2013-12-29 18:21:00,74.7,67.4,29.94,SSE,158,0.2,1.3,78,0.00,,,0.14,WUHU216HW,2013-12-29 23:21:00,
2013-12-29 18:26:00,74.7,67.4,29.94,South,180,1.8,1.8,78,0.00,,,0.14,WUHU216HW,2013-12-29 23:26:00,
2013-12-29 18:31:00,74.7,67.4,29.94,SSW,203,0.7,1.8,78,0.00,,,0.14,WUHU216HW,2013-12-29 23:31:00,
2013-12-29 18:36:00,74.7,67.4,29.94,SSW,203,0.2,0.9,78,0.00,,,0.14,WUHU216HW,2013-12-29 23:36:00,
2013-12-29 18:41:00,74.5,67.2,29.94,WSW,248,0.2,0.9,78,0.00,,,0.14,WUHU216HW,2013-12-29 23:41:00,
2013-12-29 18:46:00,74.5,67.2,29.94,SSE,158,1.1,2.5,78,0.00,,,0.14,WUHU216HW,2013-12-29 23:46:00,
2013-12-29 18:51:00,74.5,67.2,29.94,WSW,248,0.9,2.5,78,0.00,,,0.14,WUHU216HW,2013-12-29 23:51:00,
2013-12-29 18:56:00,74.5,67.2,29.95,SSW,203,0.9,0.9,78,0.00,,,0.14,WUHU216HW,2013-12-29 23:56:00,
2013-12-29 19:01:00,74.5,67.2,29.95,WSW,248,2.0,2.0,78,0.00,,,0.14,WUHU216HW,2013-12-30 00:01:00,
2013-12-29 19:06:00,74.5,67.2,29.95,SW,225,2.0,2.5,78,0.00,,,0.14,WUHU216HW,2013-12-30 00:06:00,
2013-12-29 19:11:00,74.5,67.2,29.95,WNW,293,0.7,2.5,78,0.00,,,0.14,WUHU216HW,2013-12-30 00:11:00,
2013-12-29 19:16:00,74.5,67.2,29.94,SSW,203,0.7,1.1,78,0.00,,,0.14,WUHU216HW,2013-12-30 00:16:00,
2013-12-29 19:21:00,74.5,67.2,29.95,SW,225,0.2,1.6,78,0.00,,,0.14,WUHU216HW,2013-12-30 00:21:00,
2013-12-29 19:26:00,74.5,67.2,29.95,SSW,203,2.0,2.0,78,0.00,,,0.14,WUHU216HW,2013-12-30 00:26:00,
2013-12-29 19:31:00,74.5,67.2,29.95,SSE,158,1.8,3.6,78,0.00,,,0.14,WUHU216HW,2013-12-30 00:31:00,
2013-12-29 19:37:00,74.5,67.2,29.95,SSW,203,0.4,3.6,78,0.00,,,0.14,WUHU216HW,2013-12-30 00:37:00,
2013-12-29 19:42:00,74.5,67.2,29.96,SSE,158,1.6,1.6,78,0.00,,,0.14,WUHU216HW,2013-12-30 00:42:00,
2013-12-29 19:47:00,74.5,67.2,29.96,West,270,1.1,2.2,78,0.00,,,0.14,WUHU216HW,2013-12-30 00:47:00,
2013-12-29 19:52:00,74.3,67.1,29.96,SW,225,1.1,3.1,78,0.00,,,0.14,WUHU216HW,2013-12-30 00:52:00,
2013-12-29 19:57:00,74.3,67.1,29.96,NW,315,0.4,3.1,78,0.00,,,0.14,WUHU216HW,2013-12-30 00:57:00,
2013-12-29 20:02:00,74.3,67.1,29.95,WSW,248,1.3,4.0,78,0.00,,,0.14,WUHU216HW,2013-12-30 01:02:00,
2013-12-29 20:07:00,74.2,66.9,29.95,WSW,248,0.9,4.0,78,0.00,,,0.14,WUHU216HW,2013-12-30 01:07:00,
2013-12-29 20:12:00,74.2,66.9,29.95,WSW,248,0.7,2.5,78,0.00,,,0.14,WUHU216HW,2013-12-30 01:12:00,
2013-12-29 20:17:00,74.2,66.5,29.95,SW,225,2.5,3.8,77,0.00,,,0.14,WUHU216HW,2013-12-30 01:17:00,
2013-12-29 20:22:00,74.2,66.5,29.96,SSW,203,0.4,2.5,77,0.00,,,0.14,WUHU216HW,2013-12-30 01:22:00,
2013-12-29 20:27:00,74.0,66.3,29.95,SSW,203,3.4,3.4,77,0.00,,,0.14,WUHU216HW,2013-12-30 01:27:00,
2013-12-29 20:32:00,74.0,66.3,29.95,SSW,203,0.4,3.4,77,0.00,,,0.14,WUHU216HW,2013-12-30 01:32:00,
2013-12-29 20:35:00,74.0,66.3,29.95,WSW,248,1.1,3.4,77,0.00,,,0.14,WUHU216HW,2013-12-30 01:35:00,
2013-12-29 20:40:00,74.0,66.0,29.95,SE,135,1.6,1.8,76,0.00,,,0.14,WUHU216HW,2013-12-30 01:40:00,
2013-12-29 20:45:00,74.0,66.0,29.95,SW,225,0.4,1.8,76,0.00,,,0.14,WUHU216HW,2013-12-30 01:45:00,
2013-12-29 20:50:00,74.0,66.0,29.95,SSW,203,1.1,1.8,76,0.00,,,0.14,WUHU216HW,2013-12-30 01:50:00,
2013-12-29 20:55:00,74.0,66.0,29.95,WNW,293,1.3,1.8,76,0.00,,,0.14,WUHU216HW,2013-12-30 01:55:00,
2013-12-29 21:00:00,74.0,66.0,29.96,SW,225,1.6,1.8,76,0.00,,,0.14,WUHU216HW,2013-12-30 02:00:00,
2013-12-29 21:05:00,74.0,65.6,29.95,SW,225,0.7,2.5,75,0.00,,,0.14,WUHU216HW,2013-12-30 02:05:00,
2013-12-29 21:10:00,74.0,65.6,29.96,SW,225,0.2,2.5,75,0.00,,,0.14,WUHU216HW,2013-12-30 02:10:00,
2013-12-29 21:15:00,74.0,65.6,29.96,West,270,1.8,2.5,75,0.00,,,0.14,WUHU216HW,2013-12-30 02:15:00,
2013-12-29 21:20:00,74.0,65.6,29.96,WSW,248,2.5,2.5,75,0.00,,,0.14,WUHU216HW,2013-12-30 02:20:00,
2013-12-29 21:26:00,73.8,65.4,29.96,West,270,1.1,2.5,75,0.00,,,0.14,WUHU216HW,2013-12-30 02:26:00,
2013-12-29 21:31:00,73.8,65.4,29.96,SSW,203,1.3,2.0,75,0.00,,,0.14,WUHU216HW,2013-12-30 02:31:00,
2013-12-29 21:36:00,73.8,65.4,29.96,West,270,0.9,2.2,75,0.00,,,0.14,WUHU216HW,2013-12-30 02:36:00,
2013-12-29 21:41:00,73.8,65.4,29.96,NW,315,1.8,2.2,75,0.00,,,0.14,WUHU216HW,2013-12-30 02:41:00,
2013-12-29 21:46:00,74.0,65.2,29.96,WNW,293,1.6,3.4,74,0.00,,,0.14,WUHU216HW,2013-12-30 02:46:00,
2013-12-29 21:51:00,74.0,65.2,29.96,West,270,0.7,3.4,74,0.00,,,0.14,WUHU216HW,2013-12-30 02:51:00,
2013-12-29 21:56:00,73.8,65.1,29.97,NW,315,2.5,6.9,74,0.00,,,0.14,WUHU216HW,2013-12-30 02:56:00,
2013-12-29 22:01:00,73.6,65.3,29.97,NNW,338,1.8,6.9,75,0.00,,,0.14,WUHU216HW,2013-12-30 03:01:00,
2013-12-29 22:08:00,73.4,65.1,29.97,WNW,293,3.1,3.1,75,0.00,,,0.14,WUHU216HW,2013-12-30 03:08:00,
2013-12-29 22:13:00,73.3,64.9,29.97,NNW,338,1.1,3.1,75,0.00,,,0.14,WUHU216HW,2013-12-30 03:13:00,
2013-12-29 22:18:00,73.1,64.7,29.98,North,0,0.2,2.9,75,0.00,,,0.14,WUHU216HW,2013-12-30 03:18:00,
2013-12-29 22:23:00,73.1,64.7,29.98,North,0,0.2,2.9,75,0.00,,,0.14,WUHU216HW,2013-12-30 03:23:00,
2013-12-29 22:28:00,73.1,64.7,29.98,West,270,1.1,1.1,75,0.00,,,0.14,WUHU216HW,2013-12-30 03:28:00,
2013-12-29 22:33:00,73.1,64.7,29.98,WNW,293,0.0,1.1,75,0.00,,,0.14,WUHU216HW,2013-12-30 03:33:00,
2013-12-29 22:39:00,73.1,65.1,29.98,WNW,293,0.0,0.4,76,0.00,,,0.14,WUHU216HW,2013-12-30 03:39:00,
2013-12-29 22:44:00,73.1,65.1,29.99,WNW,293,0.0,0.0,76,0.00,,,0.14,WUHU216HW,2013-12-30 03:44:00,
2013-12-29 22:49:00,73.1,65.1,29.99,WNW,293,0.4,0.4,76,0.00,,,0.14,WUHU216HW,2013-12-30 03:49:00,
2013-12-29 22:54:00,73.1,65.1,29.99,WNW,293,0.0,0.4,76,0.00,,,0.14,WUHU216HW,2013-12-30 03:54:00,
2013-12-29 22:59:00,73.1,65.1,29.99,NNE,23,0.0,0.4,76,0.00,,,0.14,WUHU216HW,2013-12-30 03:59:00,
2013-12-29 23:04:00,73.1,65.1,29.99,ENE,68,0.2,0.4,76,0.00,,,0.14,WUHU216HW,2013-12-30 04:04:00,
2013-12-29 23:09:00,73.1,65.1,29.99,ENE,68,0.0,0.2,76,0.00,,,0.14,WUHU216HW,2013-12-30 04:09:00,
2013-12-29 23:14:00,73.1,65.1,29.99,ENE,68,0.0,0.0,76,0.00,,,0.14,WUHU216HW,2013-12-30 04:14:00,
2013-12-29 23:19:00,73.1,65.1,29.99,ENE,68,0.0,0.0,76,0.00,,,0.14,WUHU216HW,2013-12-30 04:19:00,
2013-12-29 23:25:00,73.1,65.1,29.99,ENE,68,0.0,0.0,76,0.00,,,0.14,WUHU216HW,2013-12-30 04:25:00,
2013-12-29 23:30:00,73.1,65.1,29.99,ENE,68,0.0,0.0,76,0.00,,,0.14,WUHU216HW,2013-12-30 04:30:00,
2013-12-29 23:35:00,73.1,65.1,29.99,ENE,68,0.0,0.0,76,0.00,,,0.14,WUHU216HW,2013-12-30 04:35:00,
2013-12-29 23:40:00,73.1,65.1,29.99,ENE,68,0.0,0.0,76,0.00,,,0.14,WUHU216HW,2013-12-30 04:40:00,
2013-12-29 23:45:00,73.1,65.1,29.99,ENE,68,0.0,0.0,76,0.00,,,0.14,WUHU216HW,2013-12-30 04:45:00,
2013-12-29 23:50:00,73.1,65.1,29.99,ENE,68,0.0,0.0,76,0.00,,,0.14,WUHU216HW,2013-12-30 04:50:00,
2013-12-29 23:55:00,73.1,65.1,29.99,ENE,68,0.0,0.0,76,0.00,,,0.14,WUHU216HW,2013-12-30 04:55:00,